Language: 


Des rapports , des résumés tant et plus, au choix de chacun....


Données statistiques de la station
Quotidien Rapport Novembre 24, 2017 Unités:  Métrique    Anglais   les deux
« Précédent Jour
Suivant Jour »
Quotidien Hebdomadaire Mensuel Annuel Actuel
  Haut: Bas: Moyen:
Température: 12.5 °C 5.3 °C 8 °C
Pt de rosée: 11.0 °C 6.0 °C 7.7 °C
Humidité: 98 % 83 % 96 %
Vitesse du vent: 13.0 km/h 0.0 km/h 1.9 km/h
Rafales: 16.6 km/h - -
Vent:- - WSW
Pression: 1012.1 hPa 1005.0 hPa -
Précipitation: 14.0 mm    
Historical Graphs
 
 
Données statistiques pour Novembre 24, 2017
Heure Température Point de rosée Pression Vent Vitesse du vent Refales Humidité Pluie (taux horaire)
00:00 8.8 °C 8.0 °C 1007.0 hPa Calm   9.0 km/h 90 % 0.0 mm
00:05 8.8 °C 8.0 °C 1007.0 hPa Calm   7.9 km/h 90 % 0.0 mm
00:10 8.8 °C 8.0 °C 1006.0 hPa Calm   1.4 km/h 89 % 0.0 mm
00:15 8.8 °C 8.0 °C 1006.0 hPa Calm   1.8 km/h 89 % 0.0 mm
00:21 8.7 °C 7.0 °C 1006.0 hPa Calm   1.8 km/h 89 % 0.0 mm
00:31 8.7 °C 7.0 °C 1007.0 hPa Calm   5.8 km/h 89 % 0.0 mm
00:36 8.6 °C 7.0 °C 1007.0 hPa Calm   5.8 km/h 89 % 0.0 mm
00:41 8.6 °C 7.0 °C 1007.0 hPa Calm     89 % 0.0 mm
00:46 8.6 °C 7.0 °C 1006.0 hPa Calm     90 % 0.0 mm
00:51 8.6 °C 7.0 °C 1006.0 hPa Calm     90 % 0.0 mm
00:56 8.5 °C 7.0 °C 1007.0 hPa Calm     90 % 0.0 mm
01:06 8.5 °C 8.0 °C 1007.0 hPa Calm   5.8 km/h 91 % 0.0 mm
01:11 8.5 °C 8.0 °C 1007.0 hPa Calm   8.7 km/h 91 % 0.0 mm
01:16 8.5 °C 8.0 °C 1007.0 hPa South 5.5 km/h 8.7 km/h 92 % 0.0 mm
01:21 8.5 °C 8.0 °C 1007.0 hPa SSW 2.1 km/h 9.0 km/h 93 % 0.0 mm
01:26 8.5 °C 8.0 °C 1007.0 hPa Calm   9.0 km/h 93 % 0.0 mm
01:36 8.5 °C 8.0 °C 1007.0 hPa Calm   10.1 km/h 94 % 0.3 mm
01:41 8.5 °C 8.0 °C 1007.0 hPa Calm   10.1 km/h 94 % 0.3 mm
01:51 8.4 °C 8.0 °C 1007.0 hPa South 5.8 km/h 9.7 km/h 95 % 0.5 mm
01:56 8.4 °C 8.0 °C 1007.0 hPa Calm   8.7 km/h 95 % 0.5 mm
02:01 8.3 °C 8.0 °C 1007.0 hPa Calm   8.7 km/h 95 % 0.5 mm
02:06 8.3 °C 8.0 °C 1007.0 hPa West 6.9 km/h 7.6 km/h 95 % 0.5 mm
02:11 8.3 °C 8.0 °C 1007.0 hPa Calm   7.6 km/h 95 % 0.5 mm
02:17 8.2 °C 8.0 °C 1006.0 hPa Calm   6.4 km/h 95 % 0.8 mm
02:22 8.2 °C 8.0 °C 1006.0 hPa Calm   4.0 km/h 96 % 0.8 mm
02:27 8.1 °C 8.0 °C 1006.0 hPa Calm   1.8 km/h 96 % 0.8 mm
02:52 8.0 °C 8.0 °C 1006.0 hPa Calm     97 % 0.3 mm
02:57 8.0 °C 8.0 °C 1005.0 hPa Calm     97 % 0.3 mm
03:07 7.9 °C 8.0 °C 1005.0 hPa Calm     97 % 0.5 mm
03:12 7.9 °C 8.0 °C 1006.0 hPa Calm     97 % 0.8 mm
03:22 7.8 °C 8.0 °C 1006.0 hPa Calm   5.0 km/h 98 % 1.0 mm
03:27 7.8 °C 8.0 °C 1007.0 hPa Calm   5.0 km/h 98 % 1.5 mm
03:32 7.8 °C 8.0 °C 1007.0 hPa Calm   1.4 km/h 98 % 1.8 mm
03:37 7.7 °C 8.0 °C 1007.0 hPa Calm   1.4 km/h 98 % 2.3 mm
03:42 7.7 °C 8.0 °C 1006.0 hPa Calm     98 % 2.3 mm
03:47 7.7 °C 8.0 °C 1006.0 hPa Calm     98 % 2.5 mm
03:52 7.7 °C 8.0 °C 1006.0 hPa Calm     98 % 2.5 mm
03:57 7.7 °C 8.0 °C 1006.0 hPa Calm     98 % 2.8 mm
04:02 7.7 °C 8.0 °C 1006.0 hPa Calm     98 % 2.8 mm
04:13 7.6 °C 8.0 °C 1005.0 hPa Calm     98 % 2.8 mm
04:15 7.6 °C 8.0 °C 1005.0 hPa Calm     98 % 3.0 mm
04:20 7.6 °C 8.0 °C 1005.0 hPa Calm   1.4 km/h 98 % 2.8 mm
04:25 7.6 °C 8.0 °C 1005.0 hPa Calm   1.4 km/h 98 % 3.0 mm
04:30 7.6 °C 8.0 °C 1005.0 hPa Calm     98 % 3.0 mm
04:31 7.6 °C 8.0 °C 1005.0 hPa Calm     98 % 2.8 mm
04:37 7.6 °C 8.0 °C 1005.0 hPa Calm     98 % 2.5 mm
04:42 7.6 °C 8.0 °C 1005.0 hPa Calm     98 % 2.8 mm
04:47 7.6 °C 8.0 °C 1005.0 hPa Calm   4.7 km/h 98 % 2.5 mm
04:52 7.5 °C 8.0 °C 1005.0 hPa Calm   4.7 km/h 98 % 2.5 mm
04:57 7.4 °C 7.0 °C 1005.0 hPa Calm   1.8 km/h 98 % 2.3 mm
05:02 7.3 °C 7.0 °C 1005.0 hPa Calm     98 % 1.8 mm
05:07 7.3 °C 7.0 °C 1005.0 hPa Calm   4.0 km/h 98 % 1.5 mm
05:12 7.4 °C 7.0 °C 1005.0 hPa Calm   4.0 km/h 98 % 1.5 mm
05:17 7.4 °C 7.0 °C 1005.0 hPa NNW 3.5 km/h 4.7 km/h 98 % 1.3 mm
05:27 7.5 °C 8.0 °C 1005.0 hPa NNW 1.8 km/h 8.7 km/h 98 % 0.5 mm
05:32 7.5 °C 8.0 °C 1005.0 hPa Calm   6.4 km/h 98 % 0.3 mm
05:37 7.5 °C 8.0 °C 1005.0 hPa Calm   6.4 km/h 98 % 0.3 mm
05:42 7.5 °C 8.0 °C 1006.0 hPa Calm   4.7 km/h 98 % 0.0 mm
05:47 7.5 °C 8.0 °C 1006.0 hPa Calm     98 % 0.0 mm
05:52 7.5 °C 8.0 °C 1006.0 hPa Calm   3.5 km/h 98 % 0.0 mm
05:57 7.5 °C 8.0 °C 1006.0 hPa Calm   3.5 km/h 98 % 0.0 mm
06:02 7.5 °C 8.0 °C 1006.0 hPa Calm     98 % 0.0 mm
06:07 7.5 °C 8.0 °C 1006.0 hPa Calm     98 % 0.0 mm
06:12 7.4 °C 7.0 °C 1006.0 hPa Calm     98 % 0.0 mm
06:17 7.4 °C 7.0 °C 1006.0 hPa Calm     98 % 0.0 mm
06:22 7.4 °C 7.0 °C 1006.0 hPa Calm     98 % 0.0 mm
06:32 7.3 °C 7.0 °C 1007.0 hPa Calm     98 % 0.0 mm
06:37 7.3 °C 7.0 °C 1007.0 hPa Calm     98 % 0.0 mm
06:47 7.2 °C 7.0 °C 1006.0 hPa Calm     98 % 0.0 mm
06:57 7.1 °C 7.0 °C 1007.0 hPa Calm     98 % 0.0 mm
07:07 7.1 °C 7.0 °C 1007.0 hPa Calm   5.5 km/h 98 % 0.0 mm
07:12 7.1 °C 7.0 °C 1007.0 hPa Calm   4.3 km/h 98 % 0.0 mm
07:17 7.1 °C 7.0 °C 1007.0 hPa Calm     98 % 0.0 mm
07:27 7.1 °C 7.0 °C 1007.0 hPa Calm     98 % 0.0 mm
07:43 7.1 °C 7.0 °C 1007.0 hPa Calm   5.8 km/h 98 % 0.0 mm
07:58 7.1 °C 7.0 °C 1007.0 hPa Calm   4.7 km/h 98 % 0.0 mm
08:03 7.0 °C 7.0 °C 1007.0 hPa Calm   4.7 km/h 98 % 0.0 mm
08:13 7.0 °C 7.0 °C 1008.0 hPa Calm   5.8 km/h 98 % 0.0 mm
08:23 6.9 °C 7.0 °C 1008.0 hPa Calm   2.1 km/h 98 % 0.0 mm
08:33 6.7 °C 7.0 °C 1008.0 hPa Calm   4.7 km/h 98 % 0.0 mm
08:48 6.4 °C 6.0 °C 1009.0 hPa Calm   4.0 km/h 98 % 0.0 mm
08:53 6.3 °C 6.0 °C 1009.0 hPa Calm   5.0 km/h 98 % 0.0 mm
08:58 6.2 °C 6.0 °C 1009.0 hPa Calm   5.0 km/h 98 % 0.0 mm
09:03 6.2 °C 6.0 °C 1009.0 hPa Calm     98 % 0.0 mm
09:08 6.2 °C 6.0 °C 1009.0 hPa Calm     98 % 0.0 mm
09:13 6.2 °C 6.0 °C 1009.0 hPa Calm     98 % 0.0 mm
09:18 6.3 °C 6.0 °C 1009.0 hPa Calm     98 % 0.0 mm
09:23 6.3 °C 6.0 °C 1009.0 hPa Calm     98 % 0.0 mm
09:28 6.4 °C 6.0 °C 1009.0 hPa Calm     98 % 0.0 mm
09:33 6.4 °C 6.0 °C 1009.0 hPa Calm     98 % 0.0 mm
09:38 6.5 °C 7.0 °C 1009.0 hPa Calm   4.0 km/h 98 % 0.0 mm
09:43 6.8 °C 7.0 °C 1009.0 hPa West 6.4 km/h 6.4 km/h 98 % 0.0 mm
09:48 7.1 °C 7.0 °C 1009.0 hPa Calm   6.4 km/h 98 % 0.0 mm
09:58 7.5 °C 8.0 °C 1009.0 hPa Calm   5.0 km/h 98 % 0.0 mm
10:03 7.6 °C 8.0 °C 1009.0 hPa Calm   5.0 km/h 98 % 0.0 mm
10:08 7.8 °C 8.0 °C 1009.0 hPa Calm     98 % 0.0 mm
10:13 8.0 °C 8.0 °C 1010.0 hPa Calm     98 % 0.0 mm
10:18 8.2 °C 8.0 °C 1010.0 hPa Calm   6.4 km/h 98 % 0.0 mm
10:26 8.5 °C 9.0 °C 1010.0 hPa Calm   6.4 km/h 98 % 0.0 mm
10:31 8.8 °C 9.0 °C 1010.0 hPa West 6.4 km/h 6.4 km/h 98 % 0.0 mm
10:36 8.8 °C 9.0 °C 1010.0 hPa WSW 6.9 km/h 9.3 km/h 98 % 0.0 mm
10:41 8.8 °C 9.0 °C 1010.0 hPa WSW 6.9 km/h 9.7 km/h 98 % 0.0 mm
10:46 8.9 °C 9.0 °C 1010.0 hPa WSW 6.1 km/h 10.1 km/h 98 % 0.0 mm
10:51 9.0 °C 9.0 °C 1010.0 hPa WSW 5.5 km/h 10.5 km/h 98 % 0.0 mm
10:56 9.1 °C 9.0 °C 1010.0 hPa Calm   10.5 km/h 98 % 0.0 mm
11:01 9.2 °C 9.0 °C 1010.0 hPa WSW 6.9 km/h 10.5 km/h 98 % 0.0 mm
11:06 9.2 °C 9.0 °C 1010.0 hPa WSW 10.1 km/h 13.0 km/h 98 % 0.0 mm
11:11 9.4 °C 9.0 °C 1010.0 hPa WSW 8.7 km/h 13.0 km/h 98 % 0.0 mm
11:16 9.4 °C 9.0 °C 1010.0 hPa WSW 7.9 km/h 9.7 km/h 98 % 0.0 mm
11:21 9.9 °C 10.0 °C 1010.0 hPa WSW 5.8 km/h 9.7 km/h 98 % 0.0 mm
11:26 10.0 °C 10.0 °C 1011.1 hPa WSW 1.8 km/h 9.7 km/h 98 % 0.0 mm
11:31 10.0 °C 10.0 °C 1011.1 hPa WSW 9.7 km/h 10.1 km/h 98 % 0.0 mm
11:36 10.0 °C 10.0 °C 1011.1 hPa Calm   10.1 km/h 98 % 0.0 mm
11:41 10.0 °C 10.0 °C 1011.1 hPa WSW 10.5 km/h 11.1 km/h 98 % 0.0 mm
11:47 10.0 °C 10.0 °C 1011.1 hPa WSW 7.6 km/h 11.1 km/h 98 % 0.0 mm
11:52 10.5 °C 11.0 °C 1011.1 hPa WSW 6.9 km/h 12.2 km/h 98 % 0.0 mm
11:57 10.5 °C 11.0 °C 1011.1 hPa West 6.4 km/h 12.2 km/h 98 % 0.0 mm
12:02 10.5 °C 11.0 °C 1011.1 hPa WSW 6.9 km/h 11.9 km/h 98 % 0.0 mm
12:07 10.5 °C 11.0 °C 1011.1 hPa WSW 5.8 km/h 11.9 km/h 98 % 0.0 mm
12:12 11.1 °C 11.0 °C 1011.1 hPa WSW 7.9 km/h 10.5 km/h 96 % 0.0 mm
12:17 11.1 °C 11.0 °C 1011.1 hPa WSW 4.7 km/h 9.3 km/h 96 % 0.0 mm
12:23 11.6 °C 11.0 °C 1011.1 hPa WSW 9.0 km/h 11.9 km/h 95 % 0.0 mm
12:28 11.6 °C 11.0 °C 1011.1 hPa WSW 9.3 km/h 11.9 km/h 93 % 0.0 mm
12:33 11.7 °C 10.0 °C 1011.1 hPa WSW 7.2 km/h 11.9 km/h 92 % 0.0 mm
12:38 11.7 °C 10.0 °C 1011.1 hPa WSW 9.0 km/h 12.2 km/h 91 % 0.0 mm
12:43 11.9 °C 10.0 °C 1011.1 hPa WSW 9.0 km/h 12.2 km/h 89 % 0.0 mm
12:48 12.0 °C 10.0 °C 1011.1 hPa WSW 10.1 km/h 13.0 km/h 88 % 0.0 mm
12:53 12.2 °C 10.0 °C 1011.1 hPa West 13.0 km/h 13.7 km/h 88 % 0.0 mm
12:58 12.3 °C 10.0 °C 1011.1 hPa SW 9.7 km/h 13.7 km/h 86 % 0.0 mm
13:03 12.3 °C 10.0 °C 1011.1 hPa WSW 6.9 km/h 13.0 km/h 86 % 0.0 mm
13:05 12.3 °C 10.0 °C 1011.1 hPa Calm   13.0 km/h 86 % 0.0 mm
13:10 12.5 °C 10.0 °C 1011.1 hPa WSW 2.6 km/h 13.0 km/h 84 % 0.0 mm
13:15 12.4 °C 10.0 °C 1011.1 hPa WSW 10.1 km/h 12.6 km/h 84 % 0.0 mm
13:20 12.4 °C 10.0 °C 1011.1 hPa WSW 9.0 km/h 12.6 km/h 84 % 0.0 mm
13:25 11.9 °C 9.0 °C 1011.1 hPa WSW 9.7 km/h 12.2 km/h 83 % 0.0 mm
13:30 11.9 °C 9.0 °C 1011.1 hPa SW 7.2 km/h 12.6 km/h 83 % 0.0 mm
13:35 11.9 °C 9.0 °C 1011.1 hPa WSW 10.1 km/h 12.6 km/h 83 % 0.0 mm
13:41 11.9 °C 9.0 °C 1011.1 hPa Calm   10.1 km/h 83 % 0.0 mm
13:46 11.3 °C 9.0 °C 1011.1 hPa WSW 7.9 km/h 9.0 km/h 85 % 0.0 mm
13:51 11.2 °C 9.0 °C 1011.1 hPa West 6.4 km/h 9.7 km/h 85 % 0.0 mm
13:56 10.9 °C 9.0 °C 1011.1 hPa WSW 6.9 km/h 10.1 km/h 85 % 0.0 mm
14:01 10.7 °C 9.0 °C 1011.1 hPa West 6.1 km/h 10.1 km/h 85 % 0.0 mm
14:06 10.6 °C 9.0 °C 1011.1 hPa West 6.4 km/h 9.7 km/h 85 % 0.0 mm
14:11 10.4 °C 8.0 °C 1011.1 hPa West 6.1 km/h 10.5 km/h 85 % 0.0 mm
14:16 10.3 °C 8.0 °C 1011.1 hPa Calm   10.5 km/h 86 % 0.0 mm
14:21 10.2 °C 8.0 °C 1011.1 hPa WSW 6.9 km/h 10.5 km/h 86 % 0.0 mm
14:26 10.0 °C 8.0 °C 1011.1 hPa WSW 10.1 km/h 10.5 km/h 88 % 0.0 mm
14:31 9.7 °C 8.0 °C 1011.1 hPa Calm   16.6 km/h 88 % 0.3 mm
14:36 9.5 °C 8.0 °C 1011.1 hPa West 6.4 km/h 16.6 km/h 89 % 0.3 mm
14:41 9.4 °C 8.0 °C 1012.1 hPa West 4.3 km/h 6.4 km/h 89 % 0.3 mm
14:46 9.4 °C 8.0 °C 1012.1 hPa Calm   6.4 km/h 90 % 0.3 mm
14:51 9.4 °C 8.0 °C 1012.1 hPa Calm   5.5 km/h 91 % 0.3 mm
14:56 9.4 °C 8.0 °C 1011.1 hPa Calm     92 % 0.3 mm
15:01 9.4 °C 8.0 °C 1011.1 hPa Calm   4.7 km/h 92 % 0.3 mm
15:06 9.4 °C 9.0 °C 1011.1 hPa Calm   5.0 km/h 93 % 0.3 mm
15:11 9.5 °C 9.0 °C 1011.1 hPa Calm   6.1 km/h 93 % 0.3 mm
15:17 9.5 °C 9.0 °C 1011.1 hPa WSW 5.0 km/h 9.3 km/h 93 % 0.3 mm
15:22 9.4 °C 9.0 °C 1011.1 hPa WSW 6.9 km/h 9.3 km/h 93 % 0.3 mm
15:27 9.4 °C 9.0 °C 1011.1 hPa Calm   6.9 km/h 94 % 0.3 mm
15:32 9.5 °C 9.0 °C 1011.1 hPa West 5.0 km/h 6.9 km/h 94 % 0.0 mm
15:37 9.5 °C 9.0 °C 1011.1 hPa Calm   6.4 km/h 94 % 0.0 mm
15:42 9.5 °C 9.0 °C 1011.1 hPa Calm   6.4 km/h 94 % 0.0 mm
15:47 9.4 °C 9.0 °C 1011.1 hPa Calm   4.7 km/h 94 % 0.0 mm
15:52 9.3 °C 9.0 °C 1011.1 hPa Calm   7.6 km/h 94 % 0.0 mm
15:57 9.3 °C 9.0 °C 1011.1 hPa Calm   7.6 km/h 94 % 0.0 mm
16:02 9.3 °C 9.0 °C 1011.1 hPa Calm   5.8 km/h 94 % 0.0 mm
16:07 9.2 °C 9.0 °C 1011.1 hPa West 1.8 km/h 5.5 km/h 94 % 0.0 mm
16:12 9.2 °C 9.0 °C 1011.1 hPa Calm   5.8 km/h 95 % 0.0 mm
16:17 9.1 °C 9.0 °C 1011.1 hPa Calm   5.8 km/h 95 % 0.0 mm
16:22 9.1 °C 9.0 °C 1011.1 hPa Calm   2.6 km/h 95 % 0.0 mm
16:27 9.0 °C 9.0 °C 1011.1 hPa Calm   5.0 km/h 95 % 0.0 mm
16:32 9.0 °C 9.0 °C 1011.1 hPa Calm   5.0 km/h 95 % 0.3 mm
16:37 8.9 °C 9.0 °C 1011.1 hPa Calm     96 % 0.5 mm
16:42 8.8 °C 9.0 °C 1011.1 hPa Calm     96 % 0.5 mm
16:47 8.8 °C 9.0 °C 1011.1 hPa Calm     96 % 0.8 mm
16:52 8.8 °C 9.0 °C 1011.1 hPa Calm     96 % 1.5 mm
16:57 8.7 °C 9.0 °C 1011.1 hPa WSW 9.3 km/h 10.1 km/h 96 % 1.8 mm
17:02 8.6 °C 9.0 °C 1011.1 hPa West 6.4 km/h 10.1 km/h 96 % 1.8 mm
17:07 8.6 °C 9.0 °C 1011.1 hPa Calm   10.1 km/h 97 % 2.3 mm
17:13 8.4 °C 8.0 °C 1011.1 hPa North 4.0 km/h 10.1 km/h 97 % 2.3 mm
17:18 8.2 °C 8.0 °C 1011.1 hPa North 6.4 km/h 10.1 km/h 97 % 2.5 mm
17:23 8.0 °C 8.0 °C 1011.1 hPa NNW 6.1 km/h 6.4 km/h 97 % 2.8 mm
17:28 7.9 °C 8.0 °C 1010.0 hPa Calm   6.9 km/h 97 % 3.0 mm
17:33 7.9 °C 8.0 °C 1010.0 hPa Calm   6.9 km/h 97 % 3.0 mm
17:38 7.7 °C 8.0 °C 1010.0 hPa NNW 3.2 km/h 5.8 km/h 98 % 2.8 mm
17:43 7.7 °C 8.0 °C 1011.1 hPa Calm   5.8 km/h 98 % 3.0 mm
17:48 7.6 °C 8.0 °C 1011.1 hPa Calm   5.8 km/h 98 % 2.8 mm
17:53 7.5 °C 8.0 °C 1011.1 hPa Calm   5.0 km/h 98 % 2.5 mm
17:58 7.5 °C 8.0 °C 1011.1 hPa Calm   4.7 km/h 98 % 2.5 mm
18:03 7.5 °C 8.0 °C 1011.1 hPa Calm   5.0 km/h 98 % 2.5 mm
18:08 7.4 °C 7.0 °C 1011.1 hPa Calm   5.0 km/h 98 % 2.5 mm
18:13 7.4 °C 7.0 °C 1011.1 hPa NNW 2.6 km/h 5.8 km/h 98 % 2.8 mm
18:18 7.4 °C 7.0 °C 1011.1 hPa North 5.0 km/h 5.8 km/h 98 % 2.8 mm
18:23 7.3 °C 7.0 °C 1011.1 hPa North 4.3 km/h 6.4 km/h 98 % 2.5 mm
18:28 7.2 °C 7.0 °C 1011.1 hPa Calm   6.4 km/h 98 % 2.5 mm
18:33 7.1 °C 7.0 °C 1011.1 hPa North 5.0 km/h 6.4 km/h 98 % 2.3 mm
18:38 7.0 °C 7.0 °C 1011.1 hPa Calm   6.1 km/h 98 % 2.5 mm
18:43 6.9 °C 7.0 °C 1011.1 hPa Calm   4.3 km/h 98 % 2.3 mm
18:48 6.8 °C 7.0 °C 1011.1 hPa Calm   3.2 km/h 98 % 1.8 mm
18:53 6.8 °C 7.0 °C 1011.1 hPa Calm   1.8 km/h 98 % 1.8 mm
18:58 6.8 °C 7.0 °C 1011.1 hPa Calm     98 % 1.8 mm
19:03 6.8 °C 7.0 °C 1011.1 hPa Calm   1.4 km/h 98 % 1.5 mm
19:08 6.7 °C 7.0 °C 1011.1 hPa Calm   1.4 km/h 98 % 1.8 mm
19:10 6.7 °C 7.0 °C 1011.1 hPa Calm     98 % 1.5 mm
19:15 6.7 °C 7.0 °C 1012.1 hPa Calm   2.1 km/h 98 % 1.5 mm
19:21 6.6 °C 7.0 °C 1012.1 hPa Calm   2.1 km/h 98 % 1.5 mm
19:22 6.6 °C 7.0 °C 1012.1 hPa Calm     98 % 1.5 mm
19:27 6.6 °C 7.0 °C 1012.1 hPa Calm     98 % 1.3 mm
19:32 6.6 °C 7.0 °C 1012.1 hPa Calm     98 % 1.3 mm
19:37 6.6 °C 7.0 °C 1012.1 hPa Calm     98 % 0.8 mm
19:42 6.6 °C 7.0 °C 1012.1 hPa Calm     98 % 1.3 mm
19:47 6.7 °C 7.0 °C 1012.1 hPa Calm     98 % 1.3 mm
19:52 6.7 °C 7.0 °C 1012.1 hPa Calm   4.0 km/h 98 % 1.3 mm
19:57 6.7 °C 7.0 °C 1011.1 hPa Calm   4.0 km/h 98 % 0.8 mm
20:02 6.7 °C 7.0 °C 1011.1 hPa Calm   1.4 km/h 98 % 0.8 mm
20:07 6.6 °C 7.0 °C 1011.1 hPa Calm     98 % 0.5 mm
20:12 6.5 °C 7.0 °C 1011.1 hPa Calm   4.3 km/h 98 % 0.5 mm
20:17 6.5 °C 7.0 °C 1011.1 hPa Calm   5.0 km/h 98 % 0.5 mm
20:22 6.5 °C 7.0 °C 1011.1 hPa Calm   5.5 km/h 98 % 0.3 mm
20:27 6.4 °C 6.0 °C 1011.1 hPa North 5.0 km/h 6.9 km/h 98 % 0.5 mm
20:32 6.4 °C 6.0 °C 1011.1 hPa Calm   6.9 km/h 98 % 0.5 mm
20:37 6.4 °C 6.0 °C 1011.1 hPa Calm   6.1 km/h 98 % 0.5 mm
20:42 6.4 °C 6.0 °C 1012.1 hPa Calm   6.1 km/h 98 % 0.3 mm
20:47 6.3 °C 6.0 °C 1012.1 hPa Calm     98 % 0.3 mm
20:52 6.3 °C 6.0 °C 1012.1 hPa NNE 6.1 km/h 6.9 km/h 98 % 0.3 mm
20:57 6.1 °C 6.0 °C 1011.1 hPa NNE 5.8 km/h 10.5 km/h 98 % 0.3 mm
21:02 6.1 °C 6.0 °C 1011.1 hPa NNW 4.0 km/h 10.5 km/h 98 % 0.3 mm
21:07 6.0 °C 6.0 °C 1011.1 hPa NNW 4.7 km/h 7.6 km/h 98 % 0.5 mm
21:08 6.0 °C 6.0 °C 1011.1 hPa Calm   6.1 km/h 98 % 0.5 mm
21:13 6.0 °C 6.0 °C 1011.1 hPa Calm   6.9 km/h 98 % 0.5 mm
21:18 5.9 °C 6.0 °C 1011.1 hPa NNW 3.2 km/h 6.9 km/h 98 % 1.0 mm
21:23 5.9 °C 6.0 °C 1011.1 hPa Calm   6.4 km/h 98 % 1.0 mm
21:28 5.9 °C 6.0 °C 1012.1 hPa Calm   6.9 km/h 98 % 0.8 mm
21:33 5.8 °C 6.0 °C 1012.1 hPa NE 2.6 km/h 10.1 km/h 98 % 0.8 mm
21:38 5.8 °C 6.0 °C 1012.1 hPa NNE 7.9 km/h 10.1 km/h 98 % 0.8 mm
21:43 5.8 °C 6.0 °C 1011.1 hPa NE 4.3 km/h 9.3 km/h 98 % 0.8 mm
21:48 5.8 °C 6.0 °C 1011.1 hPa Calm   8.7 km/h 98 % 0.8 mm
21:53 5.8 °C 6.0 °C 1011.1 hPa Calm   8.7 km/h 98 % 0.8 mm
21:58 5.8 °C 6.0 °C 1010.0 hPa Calm   9.3 km/h 98 % 0.8 mm
22:03 5.8 °C 6.0 °C 1010.0 hPa Calm   9.3 km/h 98 % 0.3 mm
22:08 5.8 °C 6.0 °C 1010.0 hPa Calm   3.2 km/h 98 % 0.3 mm
22:13 5.8 °C 6.0 °C 1011.1 hPa SSE 5.0 km/h 5.0 km/h 98 % 0.3 mm
22:19 5.9 °C 6.0 °C 1011.1 hPa Calm   5.0 km/h 98 % 0.0 mm
22:24 5.9 °C 6.0 °C 1011.1 hPa Calm   10.1 km/h 98 % 0.0 mm
22:29 5.9 °C 6.0 °C 1010.0 hPa Calm   10.1 km/h 98 % 0.0 mm
22:34 5.9 °C 6.0 °C 1010.0 hPa Calm   9.3 km/h 98 % 0.0 mm
22:39 5.9 °C 6.0 °C 1010.0 hPa Calm   6.1 km/h 98 % 0.0 mm
22:44 5.9 °C 6.0 °C 1011.1 hPa Calm     98 % 0.0 mm
22:49 5.9 °C 6.0 °C 1011.1 hPa Calm     98 % 0.0 mm
22:54 5.9 °C 6.0 °C 1011.1 hPa Calm     98 % 0.0 mm
22:59 5.8 °C 6.0 °C 1011.1 hPa Calm   4.0 km/h 98 % 0.0 mm
23:04 5.8 °C 6.0 °C 1011.1 hPa Calm   4.0 km/h 98 % 0.0 mm
23:09 5.8 °C 6.0 °C 1011.1 hPa Calm   3.2 km/h 98 % 0.0 mm
23:14 5.7 °C 6.0 °C 1011.1 hPa Calm   4.3 km/h 98 % 0.0 mm
23:19 5.7 °C 6.0 °C 1011.1 hPa Calm   5.0 km/h 98 % 0.0 mm
23:24 5.7 °C 6.0 °C 1011.1 hPa SE 2.1 km/h 7.6 km/h 98 % 0.0 mm
23:29 5.7 °C 6.0 °C 1011.1 hPa Calm   7.6 km/h 98 % 0.0 mm
23:34 5.7 °C 6.0 °C 1011.1 hPa Calm   7.6 km/h 98 % 0.0 mm
23:39 5.6 °C 6.0 °C 1011.1 hPa Calm   4.0 km/h 98 % 0.0 mm
23:44 5.6 °C 6.0 °C 1010.0 hPa Calm     98 % 0.0 mm
23:49 5.5 °C 6.0 °C 1010.0 hPa Calm     98 % 0.0 mm
23:54 5.4 °C 6.0 °C 1010.0 hPa Calm     98 % 0.0 mm
23:59 5.3 °C 6.0 °C 1011.1 hPa Calm     98 % 0.0 mm
Le Gheer Warneton
Courtoisie de Weather Underground - 2.25 mb

Mise a jour : 18/12/2017 17:27:12
Généré par Cumulus 1.9.4 (1099)